User: anonymous   Login
Location: Fort Hays State University
(38.8712°N, 99.3432°W)
Time: 03:19:53
(UTC-05:00)
Language:

ALOS - Orbit

View from above orbital plane
View from above orbital plane
View from above satellite
View from above satellite

Ground track
Ground track

The orbit data is extracted from the following two-line orbital elements,

1 28931U 06002A   16273.22955070  .00000303  00000-0  68773-4 0  9991
2 28931  97.8751 307.2449 0002327  74.1369 286.0089 14.62246424569328
Epoch (UTC): 29 September 2016 05:30:33
Eccentricity: 0.0002327
inclination: 97.8751°
perigee height: 684 km
apogee height: 687 km
right ascension of ascending node: 307.2449°
argument of perigee: 74.1369°
revolutions per day: 14.62246424
mean anomaly at epoch: 286.0089°
orbit number at epoch: 56932

The dashed part of the orbit path shows where the satellite is in the earth's shadow,  

DLR